User: anonymous   Login
Location: Multiple Mirror Telescope
(31.6889°N, 110.8853°W)
Time: 10:08:28
(UTC-07:00)
Language:

ARIANE 6 FM1 Upper Stage - Orbit

View from above orbital plane
View from above orbital plane
View from above satellite
View from above satellite

Ground track
Ground track

The orbit is defined by the following mean orbital elements,

1 60235U          26101.55584505 +.00000000 +00000-0 +13838-3 0 00002
2 60235  61.9925 102.9533 0057699 120.1075 240.5753 15.00838553    09
Epoch (UTC): 11 April 2026 13:20:25
Eccentricity: 0.0057699
inclination: 61.9925°
perigee height: 524 km
apogee height: 604 km
right ascension of ascending node: 102.9533°
argument of perigee: 120.1075°
revolutions per day: 15.00838553
mean anomaly at epoch: 240.5753°

The dashed part of the orbit path shows where the satellite is in the earth's shadow,  

DLR